Powrót do katalogu

STARLINK-34310

AktywnyŁącznośćVLEO
NORAD 64210·PAYLOAD·🇺🇸 United States

Wystrzelony May 31, 2025 z Vandenberg Space Force Base

Loading…

Następne Przeloty (najbliższe 24 godziny)

TLE

ŚwieżeSource: CelesTrak SupGP

Epoka: Sep 15, 2026, 04:01 UTC

1 64210C 25117H   26258.16784722 -.00054343  00000+0 -16057-2 0  2588
2 64210  53.1574 238.4600 0001389  90.5331 149.0402 15.34415074    10

Śledź STARLINK-34310 w czasie rzeczywistym z AllMySat

Download on the App Store